Temperature
26 25 25 25 26 26 26 26 25 25 26 26 25 24 24 24 24 23 23 23 22 22 21 20 20 19 19 19 18 18 17 17 17 16 16 16 16 16 15 15 15 15 15 15
26 25 26 27 27 26 26 25 25 25 26 25 25 24 24 24 24 23 23 23 22 21 21 20 19 19 19 18 18 18 17 17 17 16 16 16 15 15 15 15 15 15 15 15
25 26 27 26 26 25 25 25 25 25 25 25 24 23 23 24 24 23 23 23 22 21 21 20 19 19 18 18 18 18 17 17 16 16 16 16 15 15 15 15 15 15 15 15
26 26 26 26 25 25 25 26 25 25 24 23 24 22 23 23 23 23 22 22 22 21 20 20 19 19 18 18 18 17 17 17 16 16 16 16 15 15 15 15 15 15 15 14
25 26 25 25 25 25 25 25 25 24 23 23 24 23 23 23 22 22 22 22 21 21 20 19 19 18 18 18 17 17 17 17 16 16 16 15 15 15 15 15 15 14 14 14
25 26 26 25 25 25 25 25 24 24 23 22 24 24 22 22 22 22 22 21 21 20 19 19 18 18 17 17 17 17 17 16 16 16 15 15 15 15 15 15 14 14 14 14
24 25 25 25 24 25 25 23 22 22 21 22 25 24 22 23 23 23 22 21 20 20 19 18 18 17 17 17 16 16 16 16 16 16 15 15 15 15 15 14 14 14 14 14
24 24 24 24 24 23 24 23 22 21 22 23 24 23 22 23 23 22 21 21 20 19 19 18 17 17 17 16 16 16 16 16 15 15 15 15 15 15 15 15 14 14 14 14
23 23 25 24 24 24 23 23 24 23 23 22 23 22 22 22 22 21 20 20 19 19 18 17 17 17 16 16 16 16 15 15 15 15 15 15 15 15 15 14 14 14 14 14
23 23 24 24 24 24 24 23 23 22 21 21 22 22 21 20 20 20 20 19 18 18 18 17 17 16 16 16 16 15 15 15 15 15 15 14 14 14 14 14 14 14 14 14
23 22 23 23 23 23 23 23 23 22 22 21 21 21 22 21 20 20 19 18 18 17 17 17 16 16 16 16 15 15 15 15 15 15 14 14 14 14 14 14 14 14 14 14
23 22 22 23 23 23 23 23 22 21 21 22 21 20 22 21 20 20 19 18 17 17 16 16 16 16 16 15 15 15 15 15 14 14 14 14 14 14 14 14 14 14 14 14
21 21 21 21 22 22 22 22 22 22 21 21 20 20 21 21 20 19 18 18 17 16 16 16 16 15 15 15 15 15 15 14 14 14 14 14 14 14 13 13 13 13 13 13
19 20 20 20 21 21 21 22 22 21 20 20 20 20 20 20 19 18 18 17 17 16 16 15 15 15 15 14 14 14 14 14 14 14 14 14 14 13 13 13 13 13 13 13
20 20 21 21 21 21 21 21 21 21 21 20 20 20 20 19 19 18 18 17 16 16 15 15 14 14 14 14 14 14 13 13 13 13 13 13 13 13 13 13 13 13 13 13
20 20 20 20 21 21 20 21 21 21 21 20 20 19 20 20 19 18 17 17 16 16 15 15 14 14 14 14 13 13 13 13 13 13 13 13 13 13 13 13 13 13 12 12
20 19 19 19 20 20 19 20 20 20 21 20 19 19 19 19 18 18 17 16 16 15 15 14 14 14 13 13 13 13 12 12 12 12 12 12 12 12 12 12 12 12 12 12
19 19 19 18 19 18 19 21 20 20 20 20 19 19 19 18 17 17 16 16 15 15 14 14 13 13 13 13 13 12 12 12 12 12 12 12 12 12 12 12 12 12 12 12
19 19 18 18 17 18 19 19 19 19 19 19 19 18 18 17 16 16 16 15 14 14 13 13 13 13 13 12 12 12 12 12 12 12 11 11 11 11 11 11 11 11 11 11
19 19 18 17 17 17 18 19 19 18 17 18 18 18 17 16 15 15 15 14 14 13 13 12 12 12 12 12 12 12 11 11 11 11 11 11 11 11 11 11 11 11 11 10
17 17 17 16 17 18 18 18 18 17 16 17 17 16 16 16 15 14 14 13 13 13 12 12 12 12 11 11 11 11 11 11 11 11 11 11 10 10 10 10 10 10 10 10
17 17 16 16 16 16 17 17 17 16 16 16 16 15 15 14 14 14 13 13 12 12 12 11 11 11 11 11 11 11 11 10 10 10 10 10 10 10 10 10 10 10 10 10
17 17 17 17 16 17 17 16 16 16 15 15 15 14 14 14 13 13 12 12 12 11 11 11 11 10 10 10 10 10 10 10 10 10 10 10 9 9 9 9 9 9 9 9
17 17 17 16 16 16 16 16 15 15 15 14 14 14 13 13 12 12 12 12 11 11 10 10 10 10 10 10 10 10 10 9 9 9 9 9 9 9 9 9 9 9 9 9
16 16 16 16 16 16 15 15 14 14 14 13 13 13 13 12 12 11 11 11 11 10 10 10 10 10 9 9 9 9 9 9 9 9 9 9 8 8 8 8 8 8 8 8
16 16 15 15 16 15 15 14 14 13 13 13 13 12 12 12 11 11 11 10 10 10 10 9 9 9 9 9 9 9 9 9 8 8 8 8 8 8 8 8 8 8 8 8
Wind_Speed
8 7 8 8 8 8 8 7 7 4 3 4 5 4 4 3 4 4 4 4 4 5 5 6 6 6 4 4 4 5 5 4 4 3 3 3 2 2 2 3 4 5 5 5
8 9 8 6 6 7 8 8 8 5 3 5 5 5 5 4 4 4 4 5 4 5 6 6 6 5 4 3 2 4 4 4 4 3 2 2 2 2 2 2 3 2 3 4
10 5 4 5 7 8 9 9 7 7 5 7 7 7 5 4 4 3 2 3 4 4 6 7 5 5 4 3 2 3 4 4 4 3 2 2 3 2 2 2 1 2 3 3
7 6 5 6 8 8 9 6 7 7 7 6 6 5 5 7 5 4 3 2 2 3 4 6 5 5 4 3 3 3 4 4 3 3 3 3 2 2 1 1 2 2 3 3
6 4 5 7 6 6 7 7 8 8 9 11 10 7 3 6 5 4 4 3 3 3 5 6 5 5 4 4 3 3 4 4 3 3 3 3 2 1 1 2 2 2 2 2
8 6 4 5 5 6 6 7 9 9 8 9 10 7 1 3 4 4 4 4 4 4 5 6 6 5 4 4 3 3 3 3 3 2 3 2 2 2 2 2 2 2 1 1
8 8 5 3 6 5 6 6 4 5 6 5 4 3 2 4 5 5 5 4 5 5 5 6 6 5 4 4 3 3 3 2 2 2 2 3 2 2 2 2 2 2 2 1
6 5 5 3 4 4 7 7 5 4 5 4 2 1 4 7 7 7 6 6 5 6 5 5 5 5 4 4 3 2 2 1 2 2 1 2 2 2 2 3 3 2 2 2
5 3 4 4 3 6 6 7 7 8 10 9 3 3 4 6 8 8 7 5 5 6 5 5 4 4 4 4 2 2 2 1 1 1 1 0 1 1 2 2 3 2 2 2
7 6 3 2 4 6 7 8 6 5 5 6 4 2 3 4 5 6 5 5 4 4 4 4 3 3 3 3 2 2 2 1 1 1 1 1 1 1 1 1 1 2 3 2
8 7 5 5 6 5 6 7 6 6 6 5 5 1 4 6 5 5 5 4 4 4 3 2 3 2 3 3 3 2 1 1 1 1 0 0 0 0 1 1 1 1 2 2
5 6 7 6 3 3 5 6 7 5 6 7 6 1 5 6 6 5 5 4 4 4 2 2 3 2 2 2 2 2 2 2 1 1 1 0 0 0 0 0 0 1 2 1
5 5 6 4 3 4 5 5 7 7 7 7 7 2 3 3 6 6 5 3 3 3 2 2 3 2 2 1 1 1 2 2 1 1 1 0 0 1 1 1 1 1 1 1
3 7 8 7 5 5 6 8 8 9 7 8 8 5 3 0 2 3 3 3 2 1 2 1 1 1 1 1 1 1 2 2 1 1 1 1 1 1 1 1 1 1 1 1
4 8 10 9 8 8 9 10 9 10 10 10 8 7 4 1 1 2 2 2 1 1 1 1 0 0 1 1 1 1 1 1 1 1 0 1 1 1 2 1 1 0 1 1
4 7 9 10 9 8 11 11 11 10 10 10 8 7 3 2 0 1 2 1 1 1 1 1 1 1 1 0 1 1 0 0 1 1 0 1 1 2 2 1 2 1 1 1
6 7 9 9 8 9 9 8 8 7 7 7 7 5 2 2 1 0 1 2 0 1 2 1 2 2 2 2 0 0 1 1 0 0 1 1 1 2 2 2 2 1 1 1
8 8 5 7 8 8 2 2 3 4 5 4 4 2 2 2 2 2 1 1 1 2 2 2 2 2 2 1 1 1 1 1 1 1 1 1 1 1 2 2 2 2 1 1
7 7 5 5 7 8 4 1 2 4 5 3 2 2 2 2 2 1 2 2 2 2 2 2 3 2 2 1 1 1 1 1 1 0 1 1 0 1 1 2 2 2 2 2
5 6 6 6 7 6 0 3 4 4 4 2 2 2 2 2 3 2 2 2 2 2 2 3 4 3 2 2 2 1 1 1 1 1 1 1 1 1 2 3 3 2 2 2
5 5 7 9 8 5 1 1 2 3 2 4 4 3 3 4 2 1 2 2 2 2 2 3 4 3 2 2 2 2 1 2 2 1 1 1 2 2 2 2 2 2 2 3
5 5 6 6 7 4 2 1 2 2 4 4 4 4 4 4 3 2 2 2 2 2 3 3 3 2 2 2 3 2 2 2 2 2 1 2 2 2 2 1 2 2 2 3
4 3 3 3 2 1 1 3 3 3 4 4 4 4 4 3 3 3 2 1 2 2 3 3 3 2 2 2 2 2 2 2 2 2 2 2 2 2 2 2 2 2 2 2
4 3 5 5 4 3 3 3 3 4 4 4 4 4 4 4 4 4 3 2 2 2 2 2 2 2 3 2 2 2 2 2 3 3 2 2 2 2 2 1 1 2 2 3
5 4 6 8 6 4 4 4 4 4 4 5 4 5 5 4 4 4 4 3 2 2 2 2 3 2 3 3 2 2 1 2 3 3 2 2 2 2 2 2 2 2 2 3
7 7 6 6 5 5 4 3 4 5 5 5 5 5 5 5 5 4 4 3 3 3 3 3 3 3 3 3 2 2 1 2 3 3 2 2 2 2 1 2 3 3 3 4
Wind_Direction
224 235 241 241 247 280 306 299 291 278 263 259 246 233 208 200 200 192 184 161 151 142 140 130 117 109 103 89 100 107 108 107 100 89 88 91 82 77 76 76 58 51 58 59
234 239 251 267 281 286 286 285 285 283 281 282 270 244 221 198 202 201 184 172 165 153 141 127 127 125 120 119 124 118 114 108 103 96 99 114 118 111 108 90 82 71 65 65
244 260 261 263 270 272 270 275 285 299 294 276 269 255 212 173 179 178 185 171 157 151 148 140 135 124 121 129 136 127 117 112 112 116 105 96 97 88 88 97 99 90 80 67
255 262 266 266 266 274 277 291 300 298 289 275 251 266 214 184 176 174 170 158 134 133 132 130 130 127 130 134 138 129 126 122 115 120 117 117 119 121 127 130 133 130 109 98
259 259 261 262 276 291 299 315 294 279 276 278 258 256 202 167 172 166 151 144 135 132 128 125 124 126 123 113 112 108 100 104 107 114 123 131 120 136 127 124 133 125 119 112
261 268 266 281 288 281 287 279 269 256 258 263 251 249 177 165 170 152 145 141 136 128 117 117 110 111 109 100 95 95 99 103 107 121 142 141 140 157 143 144 134 120 116 136
239 224 203 250 268 252 258 267 273 242 221 240 234 226 109 97 99 115 125 127 127 124 122 119 114 119 120 114 113 113 113 123 142 168 165 172 181 175 167 162 147 144 153 165
249 227 180 203 257 275 261 256 270 294 294 304 284 217 113 99 89 85 92 101 110 111 111 112 122 126 127 126 129 139 135 145 164 179 192 186 167 172 177 174 158 169 186 188
296 261 165 183 246 271 266 262 279 289 290 289 252 132 117 101 104 90 86 84 95 104 104 106 107 118 125 129 139 151 150 163 162 171 168 201 194 183 199 190 161 168 188 190
293 290 243 201 239 241 266 288 283 272 286 281 276 223 150 138 115 104 91 81 71 72 100 112 113 113 111 126 137 134 146 159 149 166 195 203 203 173 184 155 167 189 195 181
289 279 246 221 236 253 248 258 269 275 268 280 294 20 82 103 101 105 94 81 76 71 46 101 118 124 125 116 118 112 107 89 89 112 12 41 27 194 196 168 209 213 213 189
289 285 267 239 221 260 264 263 269 277 286 292 289 288 81 100 103 104 99 93 95 95 76 73 95 105 110 112 109 116 109 93 88 109 110 182 231 256 232 170 237 257 248 213
328 281 276 233 189 203 238 252 268 280 283 275 277 243 121 103 108 105 100 91 96 91 79 50 80 81 82 80 93 98 111 98 80 73 79 334 265 254 251 217 223 237 253 238
293 266 268 278 298 302 269 265 261 265 269 274 275 273 250 135 101 112 110 93 97 102 101 63 81 94 92 86 41 91 90 107 90 51 7 336 341 323 304 289 250 239 255 257
256 269 274 281 292 296 289 277 266 263 268 273 284 289 281 265 193 142 124 108 94 97 97 89 308 209 146 110 82 54 61 100 114 104 314 329 338 341 340 341 314 331 329 317
243 271 282 281 275 278 279 274 265 261 264 268 274 281 301 314 169 140 125 119 72 341 328 341 329 328 336 202 174 128 86 75 107 142 113 14 350 357 9 6 348 346 339 331
244 260 277 278 283 281 271 264 258 262 266 275 278 288 318 320 337 318 141 137 133 349 5 359 347 331 330 321 320 93 151 23 125 135 53 33 19 3 360 1 352 330 288 284
267 263 269 278 281 263 260 10 333 289 286 289 293 319 7 9 7 15 80 86 39 11 348 346 334 335 345 345 353 354 19 356 338 26 10 30 38 4 359 352 335 317 298 278
255 260 261 261 270 272 260 288 327 304 294 315 314 346 24 24 343 333 43 54 43 22 360 341 338 331 350 354 345 325 320 291 277 264 301 328 335 315 304 301 297 307 304 286
240 248 247 254 261 266 254 65 18 313 276 47 352 328 329 307 288 298 34 26 24 15 358 343 336 329 342 349 340 312 276 274 281 274 278 283 272 266 267 275 287 291 284 272
225 236 240 253 258 261 78 54 314 280 355 27 10 0 328 312 322 2 7 15 10 352 350 341 330 333 346 347 329 306 324 324 320 335 324 322 303 277 269 270 287 283 273 267
236 236 235 243 250 246 91 343 329 1 6 3 6 3 350 346 347 354 8 6 354 346 342 339 330 335 347 338 318 309 317 335 338 339 321 318 309 302 309 293 285 288 276 261
241 263 284 266 260 357 327 354 356 345 339 350 351 348 344 327 323 323 313 315 325 317 321 328 319 317 314 316 307 306 329 340 324 301 294 294 302 301 304 297 291 293 282 260
246 265 276 278 256 277 302 311 318 330 319 321 324 321 316 309 305 305 300 283 279 287 292 308 300 295 302 307 304 313 327 322 313 295 283 283 284 299 303 287 279 281 275 273
289 278 267 270 272 279 272 299 321 325 320 306 298 298 298 294 289 287 286 287 274 276 280 286 270 274 288 297 297 312 317 305 300 293 278 285 287 286 300 302 293 279 267 257
258 254 257 269 288 290 294 300 301 297 301 301 297 293 291 286 279 277 275 277 277 274 277 278 268 273 278 283 292 307 318 307 303 306 305 294 291 285 280 280 305 301 269 269
Height
1505 1507 1508 1504 1502 1502 1502 1505 1507 1504 1500 1503 1506 1508 1508 1508 1510 1511 1513 1515 1517 1519 1522 1524 1525 1527 1529 1530 1531 1531 1532 1532 1533 1533 1534 1534 1534 1535 1535 1535 1536 1536 1537 1537
1504 1506 1501 1499 1499 1501 1503 1507 1507 1503 1499 1502 1505 1506 1505 1506 1508 1509 1511 1513 1515 1517 1520 1522 1524 1526 1528 1529 1530 1531 1531 1532 1532 1533 1534 1534 1535 1535 1535 1536 1536 1536 1537 1537
1503 1501 1498 1499 1501 1504 1504 1506 1505 1505 1501 1501 1505 1508 1504 1504 1505 1508 1510 1512 1513 1516 1518 1520 1522 1524 1526 1528 1529 1530 1531 1532 1532 1533 1533 1534 1535 1535 1535 1536 1536 1536 1537 1537
1499 1497 1499 1501 1502 1503 1507 1500 1501 1504 1510 1510 1507 1518 1507 1502 1504 1506 1508 1510 1512 1514 1517 1519 1521 1523 1525 1526 1528 1529 1530 1531 1531 1532 1533 1533 1534 1534 1535 1535 1536 1536 1537 1537
1500 1498 1500 1502 1502 1502 1503 1500 1502 1504 1508 1510 1504 1510 1506 1500 1505 1506 1507 1510 1512 1514 1515 1517 1520 1522 1524 1525 1527 1528 1529 1530 1530 1531 1532 1533 1533 1534 1535 1535 1535 1536 1536 1537
1499 1497 1498 1500 1500 1501 1501 1502 1502 1502 1508 1518 1503 1506 1510 1503 1502 1503 1506 1509 1511 1513 1515 1517 1519 1521 1523 1524 1525 1527 1528 1529 1529 1530 1531 1532 1533 1533 1534 1534 1535 1535 1536 1536
1500 1496 1497 1500 1502 1501 1502 1510 1519 1518 1520 1513 1493 1500 1508 1499 1497 1501 1505 1508 1511 1513 1515 1517 1518 1520 1521 1523 1524 1525 1526 1527 1528 1529 1530 1531 1532 1533 1533 1533 1534 1534 1535 1536
1504 1504 1497 1499 1502 1505 1504 1507 1521 1528 1521 1508 1498 1503 1504 1498 1500 1502 1505 1509 1511 1513 1515 1517 1518 1519 1521 1522 1523 1524 1525 1526 1527 1528 1529 1529 1530 1531 1532 1532 1532 1533 1534 1535
1504 1504 1496 1498 1500 1502 1505 1504 1501 1510 1509 1512 1503 1503 1503 1499 1502 1505 1508 1510 1511 1513 1515 1517 1518 1519 1520 1521 1522 1523 1524 1524 1525 1526 1527 1528 1529 1530 1530 1531 1531 1532 1533 1534
1502 1507 1499 1498 1500 1500 1502 1502 1505 1511 1519 1521 1508 1505 1508 1505 1505 1506 1509 1511 1513 1515 1515 1517 1518 1518 1519 1520 1521 1522 1523 1523 1524 1524 1525 1526 1527 1528 1528 1529 1530 1530 1531 1532
1503 1507 1504 1501 1503 1504 1504 1505 1504 1506 1507 1518 1521 1516 1498 1502 1504 1507 1510 1512 1514 1515 1516 1516 1517 1518 1519 1519 1520 1520 1521 1522 1522 1523 1524 1524 1525 1526 1527 1527 1528 1528 1529 1530
1504 1506 1507 1501 1497 1497 1499 1502 1505 1516 1513 1508 1514 1517 1499 1501 1504 1507 1510 1512 1514 1515 1516 1516 1517 1517 1518 1518 1519 1519 1520 1520 1520 1521 1521 1522 1523 1523 1524 1524 1525 1526 1527 1528
1509 1510 1513 1508 1506 1501 1501 1501 1502 1505 1508 1511 1517 1516 1501 1502 1504 1507 1510 1512 1513 1515 1515 1516 1516 1517 1517 1518 1518 1518 1518 1519 1519 1519 1520 1520 1520 1521 1521 1522 1522 1523 1524 1525
1512 1510 1513 1516 1509 1502 1503 1502 1501 1505 1512 1511 1509 1508 1504 1504 1506 1507 1509 1512 1513 1514 1515 1515 1516 1516 1516 1516 1517 1516 1516 1517 1517 1517 1518 1518 1518 1518 1519 1519 1520 1521 1522 1522
1510 1510 1505 1503 1501 1501 1502 1501 1500 1503 1503 1507 1505 1504 1502 1503 1505 1507 1509 1510 1512 1513 1514 1514 1515 1515 1515 1515 1515 1515 1515 1515 1515 1515 1515 1515 1516 1516 1516 1517 1517 1518 1519 1520
1508 1509 1506 1505 1500 1500 1501 1499 1498 1499 1499 1500 1501 1503 1501 1502 1504 1506 1508 1509 1511 1512 1513 1513 1513 1513 1513 1513 1512 1513 1513 1513 1513 1513 1513 1513 1514 1514 1514 1514 1515 1515 1516 1517
1506 1508 1511 1510 1501 1501 1504 1496 1495 1496 1494 1497 1502 1501 1500 1502 1503 1505 1506 1508 1510 1511 1512 1512 1512 1512 1511 1511 1510 1510 1510 1511 1511 1511 1511 1511 1511 1511 1511 1511 1512 1512 1513 1514
1506 1507 1509 1510 1509 1515 1501 1491 1492 1494 1494 1495 1497 1498 1500 1502 1504 1505 1506 1507 1509 1510 1510 1510 1510 1509 1509 1509 1508 1508 1508 1508 1509 1509 1509 1509 1509 1509 1509 1509 1509 1509 1510 1510
1504 1506 1510 1512 1513 1505 1498 1494 1494 1497 1497 1496 1497 1499 1501 1502 1503 1504 1506 1506 1508 1508 1509 1508 1508 1507 1506 1506 1506 1506 1506 1506 1506 1506 1506 1506 1506 1506 1506 1506 1506 1506 1506 1507
1502 1503 1509 1510 1514 1511 1500 1495 1496 1498 1501 1498 1498 1500 1501 1502 1504 1505 1505 1506 1506 1506 1506 1506 1505 1505 1504 1504 1504 1504 1503 1503 1503 1503 1503 1503 1503 1503 1502 1502 1503 1503 1503 1503
1506 1507 1509 1510 1510 1502 1497 1497 1498 1506 1504 1499 1499 1500 1502 1502 1503 1504 1503 1503 1504 1504 1503 1503 1503 1502 1502 1501 1501 1501 1501 1501 1501 1500 1500 1500 1500 1500 1499 1499 1499 1499 1499 1499
1504 1506 1506 1506 1510 1506 1498 1498 1500 1502 1500 1500 1500 1501 1501 1501 1501 1501 1501 1501 1501 1501 1501 1500 1500 1499 1499 1499 1499 1499 1498 1498 1498 1497 1497 1497 1496 1496 1496 1496 1495 1495 1495 1495
1499 1501 1501 1501 1503 1499 1498 1499 1500 1500 1500 1500 1500 1500 1500 1500 1500 1500 1499 1499 1499 1499 1498 1498 1497 1497 1497 1496 1496 1496 1495 1495 1495 1494 1494 1493 1493 1493 1493 1492 1492 1491 1491 1491
1496 1497 1498 1498 1496 1497 1497 1498 1499 1499 1500 1499 1499 1499 1499 1498 1498 1497 1497 1497 1497 1496 1496 1495 1495 1494 1494 1494 1494 1493 1492 1492 1491 1491 1490 1490 1490 1489 1489 1489 1488 1488 1487 1487
1496 1497 1497 1497 1496 1496 1496 1497 1497 1497 1497 1497 1497 1497 1496 1496 1495 1495 1495 1494 1494 1494 1493 1493 1492 1492 1491 1491 1491 1490 1490 1489 1488 1488 1487 1487 1486 1486 1485 1485 1485 1484 1484 1483
1495 1496 1497 1496 1494 1494 1494 1494 1495 1495 1495 1494 1494 1493 1493 1493 1492 1492 1492 1491 1491 1491 1490 1490 1489 1489 1489 1488 1488 1487 1486 1486 1485 1484 1484 1483 1483 1482 1482 1481 1480 1480 1480 1479